• In France
  • List of Countries
  • For 7 days
  • Water Temperature
  • Satellite Maps
  • Weather Map
  • Weather Widgets
  • user-avatar
    Login

    Hourly Weather Pasto

    Today, 19 February, Monday

    Time Temperature Precipitation Wind Pressure Humidity
    00:00 +10°C° 1.4 mm 0 mps 548 mmHg 92%
    01:00 +10°C° 1.4 mm 0 mps 548 mmHg 92%
    02:00 +10°C° 2.7 mm 0 mps 548 mmHg 92%
    03:00 +9°C° 2.7 mm 0 mps 547 mmHg 92%
    04:00 +10°C° 2.7 mm 1 mps 547 mmHg 92%
    05:00 +10°C° 2.6 mm 1 mps 547 mmHg 91%
    06:00 +10°C° 2.6 mm 1 mps 547 mmHg 91%
    07:00 +10°C° 2.6 mm 1 mps 547 mmHg 90%
    08:00 +11°C° 1.3 mm 1 mps 548 mmHg 88%
    09:00 +11°C° 1.3 mm 1 mps 549 mmHg 85%
    10:00 +12°C° 1.3 mm 1 mps 549 mmHg 82%
    11:00 +12°C° 0.8 mm 1 mps 549 mmHg 81%
    12:00 +13°C° 0.8 mm 1 mps 549 mmHg 80%
    13:00 +14°C° 0.8 mm 1 mps 549 mmHg 79%
    14:00 +14°C° 0.5 mm 1 mps 548 mmHg 80%
    15:00 +13°C° 0.5 mm 1 mps 548 mmHg 81%
    16:00 +13°C° 0.5 mm 1 mps 548 mmHg 82%
    17:00 +13°C° 0.2 mm 1 mps 547 mmHg 85%
    18:00 +12°C° 0.2 mm 1 mps 547 mmHg 89%
    19:00 +11°C° 0.2 mm 1 mps 547 mmHg 92%
    20:00 +10°C° 0.1 mm 1 mps 547 mmHg 92%
    21:00 +10°C° 0.1 mm 1 mps 547 mmHg 91%
    22:00 +10°C° 0.1 mm 1 mps 548 mmHg 91%
    23:00 +10°C° 0.2 mm 1 mps 547 mmHg 90%

    Tomorrow, 20 February, Tuesday

    Time Temperature Precipitation Wind Pressure Humidity
    00:00 +9°C° 0.1 mm 1 mps 547 mmHg 88%
    01:00 +9°C° 0.1 mm 1 mps 547 mmHg 87%
    02:00 +9°C° 0.1 mm 1 mps 547 mmHg 87%
    03:00 +9°C° 0.1 mm 1 mps 546 mmHg 86%
    04:00 +9°C° 0.1 mm 1 mps 546 mmHg 86%
    05:00 +9°C° 0 mm 1 mps 546 mmHg 85%
    06:00 +9°C° 0 mm 1 mps 547 mmHg 84%
    07:00 +9°C° 0 mm 1 mps 547 mmHg 84%
    08:00 +11°C° 0 mm 1 mps 549 mmHg 76%
    09:00 +14°C° 0 mm 1 mps 550 mmHg 68%
    10:00 +16°C° 0 mm 1 mps 552 mmHg 60%
    11:00 +16°C° 0.2 mm 2 mps 551 mmHg 63%
    12:00 +16°C° 0.2 mm 2 mps 551 mmHg 66%
    13:00 +16°C° 0.2 mm 2 mps 550 mmHg 69%
    14:00 +16°C° 0.7 mm 2 mps 550 mmHg 72%
    15:00 +15°C° 0.7 mm 2 mps 549 mmHg 74%
    16:00 +15°C° 0.7 mm 2 mps 548 mmHg 77%
    17:00 +14°C° 0.6 mm 2 mps 548 mmHg 83%
    18:00 +12°C° 0.6 mm 1 mps 548 mmHg 89%
    19:00 +11°C° 0.6 mm 1 mps 547 mmHg 94%
    20:00 +11°C° 0.4 mm 1 mps 548 mmHg 94%
    21:00 +11°C° 0.4 mm 1 mps 548 mmHg 94%
    22:00 +10°C° 0.4 mm 1 mps 549 mmHg 94%
    23:00 +10°C° 0.1 mm 1 mps 548 mmHg 93%

    Day after tomorrow, 21 February, Wednesday

    Time Temperature Precipitation Wind Pressure Humidity
    00:00 +9°C° 0.1 mm 0 mps 548 mmHg 92%
    01:00 +9°C° 0.1 mm 0 mps 548 mmHg 91%
    02:00 +9°C° 0 mm 1 mps 548 mmHg 89%
    03:00 +9°C° 0 mm 1 mps 547 mmHg 88%
    04:00 +9°C° 0 mm 1 mps 547 mmHg 86%
    05:00 +9°C° 0 mm 1 mps 547 mmHg 84%
    06:00 +9°C° 0 mm 1 mps 548 mmHg 83%
    07:00 +9°C° 0 mm 1 mps 548 mmHg 81%
    08:00 +12°C° 0 mm 1 mps 549 mmHg 73%
    09:00 +14°C° 0 mm 1 mps 551 mmHg 65%
    10:00 +16°C° 0 mm 2 mps 552 mmHg 56%
    11:00 +17°C° 0.1 mm 2 mps 552 mmHg 59%
    12:00 +17°C° 0.1 mm 2 mps 551 mmHg 61%
    13:00 +17°C° 0.1 mm 2 mps 551 mmHg 63%
    14:00 +16°C° 0.5 mm 2 mps 550 mmHg 66%
    15:00 +16°C° 0.5 mm 2 mps 550 mmHg 70%
    16:00 +15°C° 0.5 mm 2 mps 549 mmHg 73%
    17:00 +14°C° 0.4 mm 2 mps 548 mmHg 80%
    18:00 +13°C° 0.4 mm 1 mps 548 mmHg 87%
    19:00 +11°C° 0.4 mm 1 mps 548 mmHg 94%
    20:00 +11°C° 0.2 mm 1 mps 548 mmHg 94%
    21:00 +10°C° 0.2 mm 1 mps 548 mmHg 94%
    22:00 +10°C° 0.2 mm 1 mps 549 mmHg 94%
    23:00 +10°C° 0.2 mm 1 mps 549 mmHg 93%

    22 February, Thursday

    Time Temperature Precipitation Wind Pressure Humidity
    00:00 +10°C° 0.2 mm 1 mps 548 mmHg 92%
    01:00 +10°C° 0.2 mm 1 mps 548 mmHg 91%
    02:00 +10°C° 0.1 mm 1 mps 548 mmHg 90%
    03:00 +9°C° 0.1 mm 1 mps 547 mmHg 89%
    04:00 +9°C° 0.1 mm 1 mps 547 mmHg 88%
    05:00 +9°C° 0 mm 1 mps 547 mmHg 87%
    06:00 +9°C° 0 mm 1 mps 548 mmHg 85%
    07:00 +9°C° 0 mm 1 mps 548 mmHg 84%
    08:00 +11°C° 0 mm 1 mps 549 mmHg 75%
    09:00 +14°C° 0 mm 1 mps 551 mmHg 67%
    10:00 +16°C° 0 mm 1 mps 552 mmHg 58%
    11:00 +16°C° 0.2 mm 2 mps 552 mmHg 60%
    12:00 +16°C° 0.2 mm 2 mps 551 mmHg 62%
    13:00 +16°C° 0.2 mm 2 mps 551 mmHg 63%
    14:00 +16°C° 0.4 mm 2 mps 550 mmHg 67%
    15:00 +15°C° 0.4 mm 2 mps 549 mmHg 70%
    16:00 +15°C° 0.4 mm 2 mps 548 mmHg 74%
    17:00 +14°C° 0.3 mm 2 mps 548 mmHg 80%
    18:00 +12°C° 0.3 mm 1 mps 548 mmHg 87%
    19:00 +11°C° 0.3 mm 1 mps 547 mmHg 93%
    20:00 +11°C° 0.2 mm 1 mps 548 mmHg 93%
    21:00 +10°C° 0.2 mm 1 mps 548 mmHg 92%
    22:00 +10°C° 0.2 mm 1 mps 548 mmHg 92%
    23:00 +10°C° 0.1 mm 1 mps 548 mmHg 91%

    23 February, Friday

    Time Temperature Precipitation Wind Pressure Humidity
    00:00 +10°C° 0.1 mm 1 mps 548 mmHg 91%
    01:00 +9°C° 0.1 mm 1 mps 548 mmHg 90%
    02:00 +9°C° 0 mm 1 mps 547 mmHg 89%
    03:00 +9°C° 0 mm 1 mps 547 mmHg 88%
    04:00 +8°C° 0 mm 1 mps 546 mmHg 88%
    05:00 +8°C° 0 mm 1 mps 547 mmHg 87%
    06:00 +9°C° 0 mm 1 mps 547 mmHg 85%
    07:00 +9°C° 0 mm 1 mps 547 mmHg 84%
    08:00 +11°C° 0 mm 1 mps 549 mmHg 75%
    09:00 +14°C° 0 mm 1 mps 550 mmHg 65%
    10:00 +16°C° 0 mm 1 mps 552 mmHg 55%
    11:00 +16°C° 0.2 mm 2 mps 551 mmHg 57%
    12:00 +17°C° 0.2 mm 2 mps 551 mmHg 59%
    13:00 +17°C° 0.2 mm 2 mps 550 mmHg 61%
    14:00 +16°C° 0.5 mm 2 mps 550 mmHg 65%
    15:00 +16°C° 0.5 mm 2 mps 549 mmHg 68%
    16:00 +15°C° 0.5 mm 2 mps 548 mmHg 72%
    17:00 +14°C° 0.5 mm 2 mps 548 mmHg 79%
    18:00 +12°C° 0.5 mm 1 mps 547 mmHg 87%
    19:00 +10°C° 0.5 mm 1 mps 547 mmHg 94%
    20:00 +10°C° 0.3 mm 1 mps 547 mmHg 94%
    21:00 +10°C° 0.3 mm 1 mps 547 mmHg 93%
    22:00 +10°C° 0.3 mm 1 mps 548 mmHg 93%
    23:00 +9°C° 0.1 mm 1 mps 547 mmHg 92%

    24 February, Saturday

    Time Temperature Precipitation Wind Pressure Humidity
    00:00 +9°C° 0.1 mm 1 mps 547 mmHg 91%
    01:00 +9°C° 0.1 mm 1 mps 547 mmHg 90%
    02:00 +9°C° 0 mm 1 mps 547 mmHg 89%
    03:00 +8°C° 0 mm 1 mps 546 mmHg 89%
    04:00 +8°C° 0 mm 1 mps 546 mmHg 88%
    05:00 +8°C° 0 mm 1 mps 546 mmHg 86%
    06:00 +8°C° 0 mm 1 mps 547 mmHg 85%
    07:00 +9°C° 0 mm 1 mps 547 mmHg 83%
    08:00 +11°C° 0 mm 1 mps 549 mmHg 73%
    09:00 +13°C° 0 mm 1 mps 550 mmHg 64%
    10:00 +16°C° 0 mm 2 mps 551 mmHg 54%
    11:00 +16°C° 0.3 mm 2 mps 551 mmHg 57%
    12:00 +16°C° 0.3 mm 2 mps 550 mmHg 60%
    13:00 +16°C° 0.3 mm 2 mps 550 mmHg 64%
    14:00 +16°C° 0.6 mm 2 mps 549 mmHg 67%
    15:00 +15°C° 0.6 mm 2 mps 549 mmHg 70%
    16:00 +15°C° 0.6 mm 2 mps 548 mmHg 73%
    17:00 +13°C° 0.7 mm 2 mps 548 mmHg 80%
    18:00 +12°C° 0.7 mm 1 mps 547 mmHg 87%
    19:00 +10°C° 0.7 mm 1 mps 547 mmHg 93%
    20:00 +10°C° 0.3 mm 1 mps 547 mmHg 93%
    21:00 +10°C° 0.3 mm 1 mps 547 mmHg 93%
    22:00 +9°C° 0.3 mm 1 mps 548 mmHg 94%
    23:00 +9°C° 0 mm 1 mps 547 mmHg 93%
    Show more